Location: Goettingen
(51.5300°N, 9.9433°E)
Time: 20:34:16
(UTC+02:00)

ISS - Pass Details

Date: 20 July 2019
Orbit: 409 x 418 km, 51.6° (Epoch: 20 July)

Event Time Altitude Azimuth Distance (km) Brightness Sun altitude
Rises 03:02:52 0° 284° (WNW) 2,349 -0.1 -14.7°
Reaches altitude 10° 03:05:05 10° 274° (W) 1,483 -1.2 -14.6°
Maximum altitude 03:08:06 32° 209° (SSW) 724 -3.1 -14.4°
Enters shadow 03:09:08 26° 172° (S) 846 -2.7 -14.3°
Exits shadow 03:11:55 - 139° (SE) 1,784 -0.8 -14.1°
Sets 03:13:18 0° 134° (SE) 2,330 -0.2 -14.0°
